GW6599 Weather Reports


time (UTC)temp
C
wind
direction
speed
KPH
gust
KPH
rain 1hr
cm
rain 24hr
cm
rain mn
cm
humidity
%
barometer
mb
20260505093017 8 315 0.0 1.6 0.00 0.00 0.00 95
20260505092518 8 0.0 0.0 0.00 0.00 0.00 95
20260505092018 8 285 1.6 1.6 0.00 0.00 0.00 95
20260505091517 8 339 0.0 1.6 0.00 0.00 0.00 95
20260505091018 8 0.0 0.0 0.00 0.00 0.00 94
20260505090518 9 318 0.0 1.6 0.00 0.00 0.00 94
20260505090018 9 312 0.0 1.6 0.00 0.00 0.00 94
20260505085518 9 0.0 0.0 0.00 0.00 0.00 93
20260505085035 9 313 0.0 1.6 0.00 0.00 0.00 93
20260505084515 9 0.0 0.0 0.00 0.00 0.00 93
20260505084015 9 0.0 0.0 0.00 0.00 0.00 92
20260505083515 9 316 0.0 1.6 0.00 0.00 0.00 92
20260505083015 10 0.0 0.0 0.00 0.00 0.00 91
20260505082516 10 304 1.6 3.2 0.00 0.00 0.00 92
20260505082016 10 0.0 0.0 0.00 0.00 0.00 92
20260505081516 10 329 0.0 1.6 0.00 0.00 0.00 92
20260505081036 10 0.0 0.0 0.00 0.00 0.00 92
20260505080516 10 305 0.0 3.2 0.00 0.00 0.00 90
20260505080016 10 0.0 0.0 0.00 0.00 0.00 91
20260505075516 10 321 1.6 3.2 0.00 0.00 0.00 91
20260505075016 10 322 1.6 3.2 0.00 0.00 0.00 91
20260505074516 10 302 0.0 1.6 0.00 0.00 0.00 91
20260505074016 10 0.0 0.0 0.00 0.00 0.00 90
20260505073536 10 289 1.6 3.2 0.00 0.00 0.00 90
20260505073016 10 328 1.6 3.2 0.00 0.00 0.00 90
20260505072516 10 9 0.0 1.6 0.00 0.00 0.00 89
20260505072057 10 0.0 0.0 0.00 0.00 0.00 89
20260505071517 10 317 3.2 3.2 0.00 0.00 0.00 89
20260505071017 10 320 0.0 1.6 0.00 0.00 0.00 89
20260505070517 10 318 0.0 1.6 0.00 0.00 0.00 89
20260505070017 10 300 0.0 1.6 0.00 0.00 0.00 88
20260505065517 10 0.0 0.0 0.00 0.00 0.00 88
20260505065038 10 312 0.0 3.2 0.00 0.00 0.00 88
20260505064518 10 295 3.2 3.2 0.00 0.00 0.00 89
20260505064017 10 0.0 0.0 0.00 0.00 0.00 89
20260505063537 10 307 0.0 1.6 0.00 0.00 0.00 89
20260505063058 11 319 1.6 3.2 0.00 0.00 0.00 88
20260505062517 11 310 0.0 1.6 0.00 0.00 0.00 87
20260505062018 11 299 0.0 3.2 0.00 0.00 0.00 86
20260505061538 11 358 0.0 1.6 0.00 0.00 0.00 86
20260505061018 11 356 0.0 1.6 0.00 0.00 0.00 87
20260505060538 11 260 0.0 3.2 0.00 0.00 0.00 85
20260505060015 11 307 1.6 3.2 0.00 0.00 0.00 86
20260505055518 11 319 0.0 0.0 0.00 0.00 0.00 85
20260505055018 11 0.0 0.0 0.00 0.00 0.00 85
20260505054515 11 0.0 0.0 0.00 0.00 0.00 86
20260505054015 11 321 1.6 3.2 0.00 0.00 0.00 85
20260505053515 11 331 0.0 1.6 0.00 0.00 0.00 85
20260505053015 11 285 0.0 0.0 0.00 0.00 0.00 85
20260505052516 11 0.0 0.0 0.00 0.00 0.00 83
20260505052016 11 0.0 0.0 0.00 0.00 0.00 82
20260505051516 11 311 0.0 1.6 0.00 0.00 0.00 83
20260505051017 11 0.0 0.0 0.00 0.00 0.00 83
20260505050517 12 0.0 0.0 0.00 0.00 0.00 83
20260505041518 12 293 0.0 1.6 0.00 0.00 0.00 79
20260505041058 13 307 0.0 3.2 0.00 0.00 0.00 78
20260505040518 13 301 0.0 0.0 0.00 0.00 0.00 77
20260505040038 13 308 0.0 1.6 0.00 0.00 0.00 77
20260505035538 13 318 0.0 1.6 0.00 0.00 0.00 76
20260505035018 13 0.0 0.0 0.00 0.00 0.00 75
20260505034518 13 0.0 0.0 0.00 0.00 0.00 76
20260505034038 13 0.0 0.0 0.00 0.00 0.00 75
20260505033535 13 312 1.6 3.2 0.00 0.00 0.00 73
20260505033015 13 306 0.0 0.0 0.00 0.00 0.00 73
20260505032515 13 326 0.0 1.6 0.00 0.00 0.00 72
20260505032015 14 0.0 0.0 0.00 0.00 0.00 73
20260505031515 14 313 1.6 3.2 0.00 0.00 0.00 73
20260505031016 14 27 0.0 1.6 0.00 0.00 0.00 72
20260505030536 14 323 1.6 1.6 0.00 0.00 0.00 73
20260505030016 14 0.0 0.0 0.00 0.00 0.00 71
20260505025516 15 322 0.0 1.6 0.00 0.00 0.00 71
20260505025016 15 325 1.6 3.2 0.00 0.00 0.00 69
20260505024556 15 0.0 0.0 0.00 0.00 0.00 68
20260505024016 15 0.0 0.0 0.00 0.00 0.00 69
20260505023516 15 0.0 0.0 0.00 0.00 0.00 69
20260505023017 15 328 0.0 1.6 0.00 0.00 0.00 66
20260505022516 15 320 0.0 3.2 0.00 0.00 0.00 66
20260505022017 16 0.0 0.0 0.00 0.00 0.00 65
20260505021537 16 0.0 0.0 0.00 0.00 0.00 64
20260505021017 16 307 0.0 1.6 0.00 0.00 0.00 64
20260505020517 16 0.0 0.0 0.00 0.00 0.00 64
20260505020017 16 302 1.6 3.2 0.00 0.00 0.00 63
20260505015517 16 0.0 0.0 0.00 0.00 0.00 61
20260505015037 16 0.0 0.0 0.00 0.00 0.00 62
20260505014517 17 305 0.0 1.6 0.00 0.00 0.00 62
20260505014017 17 0.0 0.0 0.00 0.00 0.00 60
20260505013517 17 155 0.0 0.0 0.00 0.00 0.00 61
20260505013017 17 0.0 0.0 0.00 0.00 0.00 60
20260505012517 17 318 0.0 1.6 0.00 0.00 0.00 58
20260505012017 18 325 0.0 1.6 0.00 0.00 0.00 57
20260505011538 18 324 1.6 1.6 0.00 0.00 0.00 56
20260505011017 18 0.0 0.0 0.00 0.00 0.00 55
20260505010518 18 50 0.0 0.0 0.00 0.00 0.00 55
20260505010018 18 0.0 0.0 0.00 0.00 0.00 55
20260505005518 19 0.0 0.0 0.00 0.00 0.00 54
20260505005038 19 0.0 0.0 0.00 0.00 0.00 54
20260505004518 20 0.0 0.0 0.00 0.00 0.00 53
20260505004038 20 0.0 0.0 0.00 0.00 0.00 52
20260505003518 20 0.0 0.0 0.00 0.00 0.00 52
20260505003018 21 0.0 0.0 0.00 0.00 0.00 51
20260505002518 21 2 0.0 1.6 0.00 0.00 0.00 49
20260505002018 21 0.0 0.0 0.00 0.00 0.00 48
20260505001519 22 0.0 0.0 0.00 0.00 0.00 47
20260505001019 22 347 0.0 3.2 0.00 0.00 0.00 47
20260505000519 22 0.0 0.0 0.00 0.00 0.00 45
20260505000016 23 0.0 0.0 0.00 0.00 0.00 45
20260504235516 23 0.0 0.0 0.00 0.00 0.00 44
20260504235056 23 87 1.6 3.2 0.00 0.00 0.00 44
20260504234516 24 324 0.0 1.6 0.00 0.00 0.00 42
20260504234016 24 27 0.0 1.6 0.00 0.00 0.00 41
20260504233517 25 335 0.0 1.6 0.00 0.00 0.00 40
20260504233017 25 323 3.2 6.4 0.00 0.00 0.00 39
20260504232516 25 310 3.2 6.4 0.00 0.00 0.00 38
20260504232017 25 314 1.6 4.8 0.00 0.00 0.00 38
20260504231557 25 293 4.8 6.4 0.00 0.00 0.00 38
20260504231017 25 307 6.4 11.3 0.00 0.00 0.00 37
20260504230516 26 294 4.8 9.7 0.00 0.00 0.00 37
20260504230017 26 316 4.8 8.0 0.00 0.00 0.00 37
20260504225517 26 275 3.2 6.4 0.00 0.00 0.00 36
20260504225037 26 273 4.8 8.0 0.00 0.00 0.00 36
20260504224517 26 307 6.4 12.9 0.00 0.00 0.00 36
20260504224017 26 312 4.8 8.0 0.00 0.00 0.00 36
20260504223518 26 306 3.2 4.8 0.00 0.00 0.00 36
20260504223058 26 295 6.4 9.7 0.00 0.00 0.00 37
20260504222517 26 327 3.2 6.4 0.00 0.00 0.00 36
20260504222018 26 339 3.2 6.4 0.00 0.00 0.00 36
20260504221518 26 320 3.2 4.8 0.00 0.00 0.00 36
20260504221018 26 289 3.2 6.4 0.00 0.00 0.00 35
20260504220518 26 290 4.8 9.7 0.00 0.00 0.00 35
20260504220038 26 303 4.8 9.7 0.00 0.00 0.00 36
20260504215518 26 305 4.8 8.0 0.00 0.00 0.00 35
20260504215018 26 318 6.4 9.7 0.00 0.00 0.00 35
20260504214518 26 308 11.3 17.7 0.00 0.00 0.00 35
20260504214018 27 328 3.2 9.7 0.00 0.00 0.00 35
20260504213519 26 316 3.2 4.8 0.00 0.00 0.00 36
20260504213018 26 313 8.0 12.9 0.00 0.00 0.00 36
20260504212519 26 31 1.6 4.8 0.00 0.00 0.00 35
20260504212019 26 312 4.8 9.7 0.00 0.00 0.00 35
20260504211519 26 306 4.8 9.7 0.00 0.00 0.00 35
20260504211019 26 300 3.2 4.8 0.00 0.00 0.00 35
20260504210519 27 147 6.4 9.7 0.00 0.00 0.00 34
20260504210039 27 168 3.2 8.0 0.00 0.00 0.00 33
20260504205519 27 55 3.2 8.0 0.00 0.00 0.00 35
20260504205019 27 355 3.2 6.4 0.00 0.00 0.00 35
20260504204519 27 144 0.0 1.6 0.00 0.00 0.00 36
20260504204020 27 305 6.4 8.0 0.00 0.00 0.00 34
20260504203520 27 257 4.8 8.0 0.00 0.00 0.00 36
20260504203019 26 303 6.4 9.7 0.00 0.00 0.00 36
20260504202520 26 311 3.2 4.8 0.00 0.00 0.00 36
20260504202020 26 311 4.8 9.7 0.00 0.00 0.00 35
20260504201519 26 281 6.4 11.3 0.00 0.00 0.00 36
20260504201020 26 307 4.8 8.0 0.00 0.00 0.00 33
20260504200517 26 203 4.8 9.7 0.00 0.00 0.00 36
20260504200017 26 111 4.8 8.0 0.00 0.00 0.00 34
20260504195517 27 321 3.2 11.3 0.00 0.00 0.00 34
20260504195018 27 331 3.2 8.0 0.00 0.00 0.00 35
20260504194517 26 321 3.2 6.4 0.00 0.00 0.00 35
20260504194017 26 289 6.4 12.9 0.00 0.00 0.00 36
20260504193518 26 116 4.8 8.0 0.00 0.00 0.00 37
20260504193038 25 302 6.4 11.3 0.00 0.00 0.00 39
20260504192518 26 102 1.6 6.4 0.00 0.00 0.00 39
20260504192018 26 130 3.2 6.4 0.00 0.00 0.00 39
20260504191518 26 107 1.6 4.8 0.00 0.00 0.00 38
20260504191018 26 315 4.8 9.7 0.00 0.00 0.00 38
20260504190515 25 185 1.6 4.8 0.00 0.00 0.00 39
20260504190038 25 325 8.0 11.3 0.00 0.00 0.00 39
20260504185518 26 295 3.2 4.8 0.00 0.00 0.00 38
20260504185035 26 259 3.2 6.4 0.00 0.00 0.00 36
20260504184515 26 325 6.4 11.3 0.00 0.00 0.00 37
20260504184016 26 284 3.2 6.4 0.00 0.00 0.00 38
20260504183539 26 70 4.8 8.0 0.00 0.00 0.00 36
20260504183016 26 316 3.2 6.4 0.00 0.00 0.00 37
20260504182516 25 78 3.2 9.7 0.00 0.00 0.00 38
20260504182036 25 257 4.8 9.7 0.00 0.00 0.00 38
20260504181516 25 320 4.8 6.4 0.00 0.00 0.00 38
20260504181016 25 323 4.8 11.3 0.00 0.00 0.00 40
20260504180517 24 101 1.6 4.8 0.00 0.00 0.00 40
20260504180016 24 177 3.2 4.8 0.00 0.00 0.00 41
20260504175516 24 197 3.2 8.0 0.00 0.00 0.00 40
20260504175016 25 287 8.0 11.3 0.00 0.00 0.00 40
20260504174516 25 35 1.6 9.7 0.00 0.00 0.00 39
20260504174017 25 318 4.8 6.4 0.00 0.00 0.00 41
20260504173516 25 322 6.4 11.3 0.00 0.00 0.00 40
20260504173017 25 28 1.6 6.4 0.00 0.00 0.00 39
20260504172536 25 316 3.2 6.4 0.00 0.00 0.00 39
20260504172017 25 175 1.6 3.2 0.00 0.00 0.00 41
20260504171517 24 307 3.2 6.4 0.00 0.00 0.00 42
20260504171017 24 276 1.6 6.4 0.00 0.00 0.00 41
20260504170537 24 298 4.8 6.4 0.00 0.00 0.00 40
20260504151016 20 284 3.2 8.0 0.00 0.00 0.00 48
20260504150516 20 251 3.2 4.8 0.00 0.00 0.00 47
20260504141017 17 310 1.6 4.8 0.00 0.00 0.00 57
20260504140517 17 321 3.2 4.8 0.00 0.00 0.00 58
20260504130517 16 168 0.0 1.6 0.00 0.00 0.00 65
20260504110517 5 0.0 0.0 0.00 0.00 0.00 98
20260504100518 5 304 0.0 1.6 0.00 0.00 0.00 97